Regional Weather Roundup
Issued by NWS Upton, NY

Current Version | Previous Version | Text Only | Print | Product List | Glossary On
Versions: 1 2 3 4 5 6 7 8 9 10 11 12 13 14 15 16 17 18 19 20 21 22 23 24 25 26 27
000 ASUS41 KOKX 150708 RWROKX REGIONAL WEATHER ROUNDUP NATIONAL WEATHER SERVICE NEW YORK NY 200 AM EST FRI DEC 15 2017 NOTE: "FAIR" INDICATES FEW OR NO CLOUDS BELOW 12,000 FEET WITH NO SIGNIFICANT WEATHER AND/OR OBSTRUCTIONS TO VISIBILITY. NYZ071-072-176-178-NJZ106-104-150800- NEW YORK CITY METRO AREA CITY SKY/WX TMP DP RH WIND PRES REMARKS Central Park CLEAR 22 5 48 W8 30.13R WCI 12 Bronx Bot Gard N/A 23 7 50 W8 30.10R WCI 14 Bronx Lehman C NOT AVBL LaGuardia APRT PTCLDY 23 7 50 NW12 30.11R WCI 12 Queens College NOT AVBL Kennedy INTL PTCLDY 21 7 54 NW9 30.12R WCI 11 Breezy Point N/A N/A N/A N/A NW8G15 N/A Brooklyn Coll NOT AVBL Staten Island NOT AVBL Newark/Liberty PTCLDY 21 6 52 W7 30.12R WCI 12 Teterboro PTCLDY 21 5 50 CALM 30.12R $$ NYZ177-179-078>081-150800- LONG ISLAND NEW YORK CITY SKY/WX TMP DP RH WIND PRES REMARKS Jones Beach N/A N/A N/A N/A NW10 N/A Wantagh NOT AVBL Matinecock PT N/A N/A N/A N/A W16G22 N/A Farmingdale CLEAR 20 5 52 NW3 30.11R MacArthur/ISP CLEAR 19 6 57 NW8 30.09R WCI 9 Shirley CLEAR 18 7 62 NW3 30.10R Mt Sinai Harb N/A N/A N/A N/A W6 N/A Westhampton CLEAR 7 0 73 CALM 30.11R East Hampton FAIR 14 7 75 CALM 30.09R Southold NOT AVBL Montauk N/A 26 10 50 NW10 30.10R WCI 16 $$ NYZ052-065-067-150800- HUDSON VALLEY CITY SKY/WX TMP DP RH WIND PRES REMARKS White Plains CLEAR 18 5 57 W9 30.07R WCI 7 Larchmont Harb N/A N/A N/A N/A W7 N/A Croton On Huds N/A N/A N/A N/A W15G22 N/A Somers NOT AVBL Brewster NOT AVBL Newburgh CLEAR 14 7 73 W9 30.07R WCI 2 Montgomery CLOUDY 12 4 70 W7 30.07R WCI 1 Otisville NOT AVBL Warwick NOT AVBL Suffern NOT AVBL Poughkeepsie PTCLDY 9 3 77 CALM 30.08R Albany MOCLDY 13 5 70 CALM 30.07R $$ NJZ001-105-106-008-010-013-015-019>022-104-150800- NEW JERSEY CITY SKY/WX TMP DP RH WIND PRES REMARKS Newark/Liberty PTCLDY 21 6 52 W7 30.12R WCI 12 Teterboro PTCLDY 21 5 50 CALM 30.12R Caldwell CLEAR 19 6 57 NW5 30.12R WCI 12 Somerville CLEAR 10 7 87 CALM 30.10S Linden FAIR 21 6 53 CALM 30.12S Perth Amboy N/A N/A N/A N/A NW7 N/A Sussex CLOUDY 8 4 83 CALM 30.08R Andover NOT AVBL Trenton CLEAR 18 7 62 NW3 30.10F Millville MOCLDY 22 15 75 CALM 30.12R Atlantic City CLOUDY 24 11 57 N7 30.11R WCI 16 Wrightstown MOCLDY 20 10 63 N6 30.08S WCI 13 Toms River PTCLDY 18 10 71 N3 30.12R Belmar CLOUDY 20 8 60 NW7 30.12 WCI 11 $$ PAZ047>061-062-071-150800- EASTERN PENNSYLVANIA CITY SKY/WX TMP DP RH WIND PRES REMARKS Philadelphia MOCLDY 24 7 48 N8 30.11F WCI 15 Allentown PTCLDY 15 4 61 N5 30.09F WCI 8 Scranton CLOUDY 10 5 80 CALM 30.05R $$ CTZ002-004>006-009-010-012-RIZ004-006-007-MAZ004-011-015-150800- SOUTHERN NEW ENGLAND IN CT CITY SKY/WX TMP DP RH WIND PRES REMARKS Bradley INTL CLOUDY 14 5 67 S5 30.06R WCI 6 Hartford CLOUDY 14 5 67 S5 30.08R WCI 6 Danbury CLEAR 15 4 61 CALM 30.07R Wtrbury/Oxford CLEAR 12 2 64 W3 30.03R Norwalk Harbor N/A N/A N/A N/A W13 N/A Bridgeport CLEAR 20 6 55 W6 30.10R WCI 12 Meriden CLEAR 9 4 80 CALM 30.08R New Haven CLEAR 20 5 52 VRB6 30.09R WCI 12 Chester FAIR 16 3 57 CALM 30.05R Groton CLEAR 18 5 57 SW7 30.08R WCI 9 Wilimantic CLEAR 12 5 73 CALM 30.06R IN RI CITY SKY/WX TMP DP RH WIND PRES REMARKS Providence CLEAR 17 6 62 W6 30.05R WCI 9 Block Island CLEAR 21 11 65 NW14G21 30.08R WCI 8 Westerly CLEAR 18 5 57 W6 30.08R WCI 10 IN MA CITY SKY/WX TMP DP RH WIND PRES REMARKS Boston PTCLDY 19 6 57 W10 30.02R WCI 7 Worcester CLEAR 11 2 67 W12 29.94R WCI -3 Westfield CLEAR 17 7 64 W13 30.03R WCI 4 Provincetown CLEAR 22 13 68 NW16G24 30.02R WCI 8 Nantucket CLEAR 19 12 74 W8 30.05R WCI 9 $$ ANZ330-335-338-340-345-350-353-355-150800- COASTAL MARINE OBSERVATIONS STATION/POSITION TIME SKY/WX TEMP WIND PRES VSBY WAVE AIR SEA DIR/SP/G HT/PER (UTC) (F) (DEG/KT/KT) (MB) (MI) (FT/S) NY HARB ENTRANCE 0550 28 51 300/ 16/ 19 1018.8 3/ 4 20 S FIRE ISLAND 0550 29 51 320/ 17/ 21 1018.8 4/ 4 GREAT SOUTH BAY 0630 24 45 300/ 8/ 12 N/A HUDSON CANYON 0550 35 56 330/ 14/ 17 1018.0 6/ 6 KINGS POINT 0636 42 350/ 10/ 12 1020.5 EXECUTION ROCKS 0630 24 290/ 10/ 16 N/A WESTERN LI SOUND NOT AVBL CENTRAL LI SOUND 0615 26 290/ 14/ 17 N/A 3 ROBBINS REEF 0636 300/ 11/ 14 1020.3 $$ >>>>>>>>>>>>>>>>>>>>>>>>>>>> KEY <<<<<<<<<<<<<<<<<<<<<<<<<<< > < > SKY/WX - Sky Condition/Present Weather < > TMP - Temperature in Fahrenheit < > DP - Dew Point in Fahrenheit < > RH - Relative Humidity in Percent < > WIND - Direction (from) and Speed in MPH < > PRES - Mean Sea Level Pressure (inches of Hg) < > WCI - Wind Chill Index < > VSB - VISIBILITY IN MILES < > HX - HEAT INDEX < > TC - TEMPERATURE IN CELSIUS < > VRB - VARIABLE WIND DIRECTION < > < >>>>>>>>>>>>>>>>>>>>>>>>>>>> KEY <<<<<<<<<<<<<<<<<<<<<<<<<<<

USA.gov is the U.S. government's official web portal to all federal, state and local government web resources and services.